Time,TemperatureF,DewpointF,PressureIn,WindDirection,WindDirectionDegrees,WindSpeedMPH,WindSpeedGustMPH,Humidity,HourlyPrecipIn,Conditions,Clouds,dailyrainin,SoftwareType,DateUTC
2013-01-03 17:30:00,88.6,75.3,29.72,SE,133,0.0,7.0,65,0.00,CLR,,0.00,WeatherDisplay:10.37,2013-01-03 07:30:00,
2013-01-03 17:35:00,88.5,75.7,29.72,South,190,1.0,6.0,66,0.00,CLR,,0.00,WeatherDisplay:10.37,2013-01-03 07:35:00,
2013-01-03 17:40:00,88.2,75.0,29.72,South,187,2.0,5.0,65,0.00,SCT,,0.00,WeatherDisplay:10.37,2013-01-03 07:40:00,
2013-01-03 17:45:00,87.9,75.2,29.72,South,183,0.0,4.0,66,0.00,SCT,,0.00,WeatherDisplay:10.37,2013-01-03 07:45:00,
2013-01-03 17:50:00,87.8,75.5,29.72,SSW,203,1.0,5.0,67,0.00,SCT,,0.00,WeatherDisplay:10.37,2013-01-03 07:50:00,
2013-01-03 17:55:00,87.6,75.7,29.73,South,179,1.0,5.0,68,0.00,SCT,,0.00,WeatherDisplay:10.37,2013-01-03 07:55:00,
2013-01-03 18:00:00,87.2,75.4,29.73,SSW,211,0.0,7.0,68,0.00,SCT,,0.00,WeatherDisplay:10.37,2013-01-03 08:00:00,
2013-01-03 18:10:00,86.7,75.7,29.73,South,178,1.0,4.0,70,0.00,SCT,,0.00,WeatherDisplay:10.37,2013-01-03 08:10:00,
2013-01-03 18:15:00,86.3,75.4,29.73,SSE,160,1.0,10.0,70,0.00,SCT,,0.00,WeatherDisplay:10.37,2013-01-03 08:15:00,
2013-01-03 18:20:00,85.8,75.3,29.74,SSE,158,1.0,4.0,71,0.00,SCT,,0.00,WeatherDisplay:10.37,2013-01-03 08:20:00,
2013-01-03 18:25:00,85.4,74.9,29.74,SE,146,0.0,4.0,71,0.00,SCT,,0.00,WeatherDisplay:10.37,2013-01-03 08:25:00,
2013-01-03 18:30:00,85.0,75.0,29.75,SE,145,1.0,5.0,72,0.00,SCT,,0.00,WeatherDisplay:10.37,2013-01-03 08:30:00,
2013-01-03 18:35:00,84.7,75.1,29.75,South,189,0.0,3.0,73,0.00,SCT,,0.00,WeatherDisplay:10.37,2013-01-03 08:35:00,
2013-01-03 18:40:00,84.3,74.7,29.75,South,184,0.0,5.0,73,0.00,SCT,,0.00,WeatherDisplay:10.37,2013-01-03 08:40:00,
2013-01-03 18:45:00,84.1,74.9,29.75,SSE,148,1.0,5.0,74,0.00,SCT,,0.00,WeatherDisplay:10.37,2013-01-03 08:45:00,
2013-01-03 18:50:00,83.8,75.0,29.75,South,180,0.0,5.0,75,0.00,SCT,,0.00,WeatherDisplay:10.37,2013-01-03 08:50:00,
2013-01-03 18:55:00,83.7,74.9,29.75,South,187,0.0,3.0,75,0.00,SCT,,0.00,WeatherDisplay:10.37,2013-01-03 08:55:00,
2013-01-03 19:00:00,83.5,75.1,29.76,SSE,162,0.0,5.0,76,0.00,SCT,,0.00,WeatherDisplay:10.37,2013-01-03 09:00:00,
2013-01-03 19:10:00,83.2,75.2,29.76,South,179,1.0,7.0,77,0.00,SCT,,0.00,WeatherDisplay:10.37,2013-01-03 09:10:00,
2013-01-03 19:15:00,83.1,75.1,29.76,SSE,166,0.0,4.0,77,0.00,SCT,,0.00,WeatherDisplay:10.37,2013-01-03 09:15:00,
2013-01-03 19:20:00,83.0,75.0,29.76,South,175,0.0,3.0,77,0.00,SCT,,0.00,WeatherDisplay:10.37,2013-01-03 09:20:00,
2013-01-03 19:25:00,82.8,74.9,29.76,ESE,118,0.0,2.0,77,0.00,SCT,,0.00,WeatherDisplay:10.37,2013-01-03 09:25:00,
2013-01-03 19:35:00,82.6,75.0,29.76,SSE,157,0.0,4.0,78,0.00,BKN,,0.00,WeatherDisplay:10.37,2013-01-03 09:35:00,
2013-01-03 19:40:00,82.5,74.9,29.76,SSW,205,1.0,3.0,78,0.00,BKN,,0.00,WeatherDisplay:10.37,2013-01-03 09:40:00,
2013-01-03 19:45:00,82.4,75.2,29.76,WSW,241,1.0,4.0,79,0.00,BKN,,0.00,WeatherDisplay:10.37,2013-01-03 09:45:00,
2013-01-03 19:50:00,82.4,75.2,29.76,SW,234,1.0,6.0,79,0.00,BKN,,0.00,WeatherDisplay:10.37,2013-01-03 09:50:00,
2013-01-03 19:55:00,82.3,75.1,29.76,SSW,195,0.0,7.0,79,0.00,BKN,,0.00,WeatherDisplay:10.37,2013-01-03 09:55:00,
2013-01-03 20:00:00,82.3,75.1,29.76,SSW,193,1.0,3.0,79,0.00,BKN,,0.00,WeatherDisplay:10.37,2013-01-03 10:00:00,
2013-01-03 20:10:00,82.1,74.9,29.77,WSW,254,1.0,6.0,79,0.00,BKN,,0.00,WeatherDisplay:10.37,2013-01-03 10:10:00,
2013-01-03 20:15:00,82.1,75.3,29.77,SW,221,1.0,7.0,80,0.00,BKN,,0.00,WeatherDisplay:10.37,2013-01-03 10:15:00,
2013-01-03 20:20:00,82.0,75.2,29.77,SSW,200,0.0,6.0,80,0.00,BKN,,0.00,WeatherDisplay:10.37,2013-01-03 10:20:00,
2013-01-03 20:25:00,81.9,75.1,29.77,SSW,201,0.0,7.0,80,0.00,BKN,,0.00,WeatherDisplay:10.37,2013-01-03 10:25:00,
2013-01-03 20:30:00,81.9,75.1,29.77,South,191,1.0,5.0,80,0.00,BKN,,0.00,WeatherDisplay:10.37,2013-01-03 10:30:00,
2013-01-03 20:35:00,81.8,75.0,29.77,SW,218,1.0,5.0,80,0.00,BKN,,0.00,WeatherDisplay:10.37,2013-01-03 10:35:00,
2013-01-03 20:40:00,81.8,75.0,29.77,WSW,242,0.0,3.0,80,0.00,SCT,,0.00,WeatherDisplay:10.37,2013-01-03 10:40:00,
2013-01-03 20:45:00,81.7,74.9,29.78,WSW,237,0.0,1.0,80,0.00,SCT,,0.00,WeatherDisplay:10.37,2013-01-03 10:45:00,
2013-01-03 20:50:00,81.7,74.9,29.78,SSW,194,1.0,5.0,80,0.00,SCT,,0.00,WeatherDisplay:10.37,2013-01-03 10:50:00,
2013-01-03 20:55:00,81.6,74.8,29.78,South,191,1.0,7.0,80,0.00,SCT,,0.00,WeatherDisplay:10.37,2013-01-03 10:55:00,
2013-01-03 21:00:00,81.6,74.8,29.78,SW,232,0.0,3.0,80,0.00,SCT,,0.00,WeatherDisplay:10.37,2013-01-03 11:00:00,
2013-01-03 21:10:00,81.5,74.7,29.78,SSW,210,0.0,4.0,80,0.00,FEW,,0.00,WeatherDisplay:10.37,2013-01-03 11:10:00,
2013-01-03 21:15:00,81.4,74.6,29.78,SSW,208,0.0,3.0,80,0.00,FEW,,0.00,WeatherDisplay:10.37,2013-01-03 11:15:00,
2013-01-03 21:20:00,81.4,75.0,29.79,SSW,206,0.0,2.0,81,0.00,FEW,,0.00,WeatherDisplay:10.37,2013-01-03 11:20:00,
2013-01-03 21:25:00,81.3,74.9,29.79,SSW,194,0.0,4.0,81,0.00,FEW,,0.00,WeatherDisplay:10.37,2013-01-03 11:25:00,
2013-01-03 21:30:00,81.2,74.8,29.79,SSW,204,1.0,4.0,81,0.00,FEW,,0.00,WeatherDisplay:10.37,2013-01-03 11:30:00,
2013-01-03 21:35:00,81.1,74.7,29.79,WSW,238,0.0,2.0,81,0.00,FEW,,0.00,WeatherDisplay:10.37,2013-01-03 11:35:00,
2013-01-03 21:40:00,81.1,74.7,29.79,WSW,252,0.0,3.0,81,0.00,FEW,,0.00,WeatherDisplay:10.37,2013-01-03 11:40:00,
2013-01-03 21:50:00,81.0,74.6,29.79,SSW,203,0.0,3.0,81,0.00,FEW,,0.00,WeatherDisplay:10.37,2013-01-03 11:50:00,
2013-01-03 21:55:00,81.0,74.6,29.79,South,188,0.0,1.0,81,0.00,FEW,,0.00,WeatherDisplay:10.37,2013-01-03 11:55:00,
2013-01-03 22:00:00,81.0,74.6,29.80,South,190,0.0,2.0,81,0.00,FEW,,0.00,WeatherDisplay:10.37,2013-01-03 12:00:00,
2013-01-03 22:10:00,80.8,74.8,29.79,WSW,242,0.0,2.0,82,0.00,SCT,,0.00,WeatherDisplay:10.37,2013-01-03 12:10:00,
2013-01-03 22:15:00,80.7,74.7,29.79,WSW,243,0.0,0.0,82,0.00,SCT,,0.00,WeatherDisplay:10.37,2013-01-03 12:15:00,
2013-01-03 22:20:00,80.6,74.6,29.80,WSW,243,0.0,3.0,82,0.00,SCT,,0.00,WeatherDisplay:10.37,2013-01-03 12:20:00,
2013-01-03 22:25:00,80.6,74.6,29.80,SW,229,0.0,3.0,82,0.01,RA,,0.01,WeatherDisplay:10.37,2013-01-03 12:25:00,
2013-01-03 22:30:00,80.5,75.2,29.80,SSW,193,0.0,4.0,84,0.00,RA,,0.01,WeatherDisplay:10.37,2013-01-03 12:30:00,
2013-01-03 22:35:00,80.3,75.0,29.80,SSW,192,0.0,2.0,84,0.01,RA,,0.02,WeatherDisplay:10.37,2013-01-03 12:35:00,
2013-01-03 22:40:00,79.9,75.0,29.80,SSW,209,0.0,2.0,85,0.00,RA,,0.02,WeatherDisplay:10.37,2013-01-03 12:40:00,
2013-01-03 22:45:00,79.5,74.9,29.80,SW,219,0.0,2.0,86,0.00,RA,,0.02,WeatherDisplay:10.37,2013-01-03 12:45:00,
2013-01-03 22:50:00,79.2,75.0,29.80,SW,227,0.0,1.0,87,0.00,RA,,0.02,WeatherDisplay:10.37,2013-01-03 12:50:00,
2013-01-03 22:55:00,78.9,74.7,29.79,SW,228,0.0,1.0,87,0.00,RA,,0.02,WeatherDisplay:10.37,2013-01-03 12:55:00,
2013-01-03 23:00:00,78.7,74.8,29.79,SW,228,0.0,1.0,88,0.00,RA,,0.02,WeatherDisplay:10.37,2013-01-03 13:00:00,
2013-01-03 23:10:00,78.3,74.5,29.79,SW,228,0.0,0.0,88,0.00,RA,,0.02,WeatherDisplay:10.37,2013-01-03 13:10:00,
2013-01-03 23:15:00,78.2,74.7,29.79,SW,228,0.0,0.0,89,0.00,RA,,0.02,WeatherDisplay:10.37,2013-01-03 13:15:00,
2013-01-03 23:20:00,78.1,74.6,29.79,SW,228,0.0,1.0,89,0.00,RA,,0.02,WeatherDisplay:10.37,2013-01-03 13:20:00,
2013-01-03 23:25:00,78.0,74.5,29.78,SW,228,0.0,1.0,89,0.00,RA,,0.02,WeatherDisplay:10.37,2013-01-03 13:25:00,
2013-01-03 23:30:00,77.8,74.3,29.79,SW,228,0.0,1.0,89,0.00,RA,,0.02,WeatherDisplay:10.37,2013-01-03 13:30:00,
2013-01-03 23:35:00,77.7,74.2,29.79,SW,232,0.0,3.0,89,0.00,RA,,0.02,WeatherDisplay:10.37,2013-01-03 13:35:00,
2013-01-03 23:40:00,77.6,74.1,29.79,WSW,238,0.0,3.0,89,0.00,RA,,0.02,WeatherDisplay:10.37,2013-01-03 13:40:00,
2013-01-03 23:45:00,77.5,74.0,29.78,WSW,239,0.0,1.0,89,0.00,RA,,0.02,WeatherDisplay:10.37,2013-01-03 13:45:00,
2013-01-03 23:50:00,77.5,74.0,29.78,WSW,238,0.0,3.0,89,0.00,RA,,0.02,WeatherDisplay:10.37,2013-01-03 13:50:00,
2013-01-03 23:55:00,77.4,73.9,29.78,WSW,240,0.0,3.0,89,0.00,RA,,0.02,WeatherDisplay:10.37,2013-01-03 13:55:00,